Regional Weather Roundup
Issued by NWS Green Bay, WI

Home | Current Version | Previous Version | Text Only | Print | Product List | Glossary On
Versions: 1 2 3 4 5 6 7 8 9 10 11 12 13 14 15 16 17 18 19 20 21 22 23 24 25 26 27 28 29 30 31 32 33 34 35 36 37 38 39 40 41 42 43 44 45 46 47 48 49 50
000
ASUS43 KGRB 271859
RWRGRB

NORTH-CENTRAL AND NORTHEAST WISCONSIN REGIONAL WEATHER ROUNDUP
NATIONAL WEATHER SERVICE GREEN BAY WI
200 PM CDT SUN JUL 27 2014

WIZ005-009-010>012-018-019-272000-
NORTH CENTRAL WISCONSIN

CITY           SKY/WX    TMP DP  RH WIND       PRES   REMARKS
IRONWOOD       CLOUDY    54  54 100 N9        29.89R
MANITOWISH WTR NOT AVBL
ARBOR VITAE    NOT AVBL
EAGLE RIVER    NOT AVBL
LAND O LAKES   NOT AVBL
RHINELANDER    CLOUDY    66  58  75 NE8       29.83R
PHILLIPS       NOT AVBL
ANTIGO         NOT AVBL
TOMAHAWK       NOT AVBL
MERRILL        NOT AVBL
$$

WIZ013-073-272000-
NORTHEAST WISCONSIN

CITY           SKY/WX    TMP DP  RH WIND       PRES   REMARKS
IRON MOUNTAIN  CLOUDY    67  56  67 N10G20    29.78R
MARINETTE      CLOUDY    61  57  88 CALM      29.72S THUNDER
$$

WIZ017-030-035>037-045-272000-
CENTRAL WISCONSIN

CITY           SKY/WX    TMP DP  RH WIND       PRES   REMARKS
MEDFORD        NOT AVBL
WAUSAU         MOSUNNY   72  56  57 N14       29.77R
MOSINEE        PTSUNNY   72  55  56 N17G24    29.80R
MARSHFIELD     MOSUNNY   72  58  61 N16G24    29.80R
WISC RAPIDS    MOSUNNY   73  59  61 MISG      29.79R
STEVENS POINT  NOT AVBL
WAUPACA        NOT AVBL
SHAWANO        NOT AVBL
CLINTONVILLE   NOT AVBL
$$

WIZ038-039-048-051-272000-
FOX VALLEY

CITY           SKY/WX    TMP DP  RH WIND       PRES   REMARKS
NWS GREEN BAY  PTSUNNY   71  59  65 N15G24    29.70S
APPLETON       PTSUNNY   73  55  53 NW16G22   29.71F THUNDER
OSHKOSH        PTSUNNY   76  58  53 NW15G25   29.71S
FOND DU LAC    PTSUNNY   75  62  64 W12       29.72F
$$

WIZ022-050-052-272000-
EAST CENTRAL WISCONSIN

CITY           SKY/WX    TMP DP  RH WIND       PRES   REMARKS
STURGEON BAY   CLOUDY    61  57  88 N16G22    29.72R
MANITOWOC      NOT AVBL
SHEBOYGAN      PTSUNNY   72  62  71 W8        29.71R
$$

LMZ563-521-522-541>543-272000-
LAKESHORE

STATION/POSITION TIME  TEMP    WIND        PRES    VSBY  WAVE
                       AIR SEA DIR/SP/G                  HT/PER
                 (UTC) (F)     (DEG/KT/KT) (MB)    (MI)  (FT/S)
SHEBOYGAN LKSHOR 1800   70     260/  8/  8 1005.3R
KEWAUNEE LKSHORE 1800   71     330/ 10/ 17 1005.8R
TWO RIVERS CG    1800   78                   N/A       6   1
NORTHPORT PIER   1800   65      30/ 12/ 16 1006.1R
N MID LAKE BUOY  1800   58 56  360/ 10/ 12 1004.6R         1
CHAMBERS ISLAND  1800   64     340/  8/ 10 1006.1R
MENOMINEE LKSHOR 1800   59     350/  8/ 10 1007.2F
$$


USA.gov is the U.S. government's official web portal to all federal, state and local government web resources and services.